CZ-4C DEB, 43270

Orbit data source: Space-Track

CZ-4C DEB, 43270 is space debris in SSO originally from a launch on Sat, 31 Mar 2018 UTC launched from the Taiyaun Space Center, China (TSC). Debris objects in space refer to the collection of defunct objects orbiting the Earth. Examples of debris include non-operational satellites, rocket bodies, and fragments generated from explosions, collisions, or faulty payload assembly.

Loading next visibility...
Identifier
43270, 2018-031J
Orbit
SSO
Country
Flag of CNCN / PRC
Related business
Manufacturer
Unknown
Mission
Spacecraft
Bus & Motor
Unknown
Mass
Unknown
Launch date (UTC)
2018-03-31 (8 years ago)
Launch vehicle
Unknown
Launch site
Taiyaun Space Center, China (TSC)
Object type
Payload
Rocket body
Debris
Shape & HBR
Unknown shape, 0.1 m
Radar Cross Section
Small (<0.1 m²)

Expand to show TLE details & history
Last TLE update: 1 week ago

TLE from 1 week ago
0 CZ-4C DEB
1 43270U 18031J   26026.40239225  .00001377  00000-0  18685-3 0  9991
2 43270  97.7408  86.4829 0005894  41.9886 318.1778 14.80389924431968
Epoch: 2026-01-26T09:39Z
TLE epoch observation values (Epoch: 2026-01-26T09:39:26.690Z)
Latitude
0.00003°
Longitude
175.92303°
Altitude
628.043 km
Speed
7.546 km/s
True Right ascension
05h 45m 55s
True Declination
0° 00' 00"
Sunlit
Object was in full shadow at epoch
Visualization orbit readout
Latitude
Unknown
Longitude
Unknown
Altitude
Unknown
Speed
Unknown
Apparent Right ascension
Unknown
Apparent Declination
Unknown
Sunlit
N/A
Visualization observer readout
Local Sidereal Time
10:08:10
Azimuth
Unknown
Elevation
Unknown
Doppler factor
Unknown
Orbital elements
Apogee altitude
629.255 km
Perigee altitude
620.999 km
Semi-major axis
7,003.264 km
Eccentricity
0.00059
Inclination
97.7408°
RAAN
86.4829°
Arg. of periapsis
41.9886°
True anomaly
318.13274°
Mean anomaly
318.1778°
Eccentric anomaly
318.15527°
Mean motion
3.70333 °/min
Orbital period
97.21 mins
BSTAR
0.00018685
Loading maneuver chart data...
Computing Atmospheric mass density...
Loading historical data...
Loading historical data...
Loading historical data...
Loading historical data...
Loading historical data...
Loading historical data...
Loading historical data...

Documentation

Showing up to 5 results
|